Location: Unspecified
(54.1780°N, 0.0000°E)
Time: 08:43:14
(UTC+00:00)

Tiros 1 - Pass Details

Date: 25 June 2019
Orbit: 630 x 664 km, 48.4° (Epoch: 17 July)

Event Time Altitude Azimuth Distance (km) Brightness Sun altitude
Rises 04:04:42 0° 273° (W) 2,932 10.1 3.3°
Reaches altitude 10° 04:07:54 10° 250° (WSW) 2,015 9.1 3.7°
Maximum altitude 04:10:32 15° 215° (SW) 1,696 8.8 4.0°
Drops below altitude 10° 04:13:08 10° 181° (S) 2,004 9.4 4.3°
Sets 04:16:18 0° 158° (SSE) 2,906 10.4 4.7°
